User: anonymous   Login
Location: Most
(50.5133°N, 13.6207°E)
Time: 23:48:34
(UTC+01:00)
Language:

SEEDS - Orbit

View from above orbital plane
View from above orbital plane
View from above satellite
View from above satellite

Ground track
Ground track

The orbit data is extracted from the following two-line orbital elements,

1 32791U 08021J   21335.47617834  .00001111  00000-0  11563-3 0  9990
2 32791  97.5898 313.7691 0014289 125.7012 234.5539 14.91677273737670
Epoch (UTC): 01 December 2021 11:25:41
Eccentricity: 0.0014289
inclination: 97.5898°
perigee height: 583 km
apogee height: 602 km
right ascension of ascending node: 313.7691°
argument of perigee: 125.7012°
revolutions per day: 14.91677273
mean anomaly at epoch: 234.5539°
orbit number at epoch: 73767

The dashed part of the orbit path shows where the satellite is in the earth's shadow,  

DLR